Regional Weather Roundup
Issued by NWS Sterling, VA

Home | Current Version | Previous Version | Text Only | Print | Product List | Glossary On
Versions: 1 2 3 4 5 6 7 8 9 10 11 12 13 14 15 16 17 18 19 20 21 22 23 24 25 26 27 28 29 30 31 32 33 34 35 36 37 38 39 40 41 42 43 44 45 46 47 48 49 50
000
ASUS41 KLWX 271910
RWRLWX

REGIONAL WEATHER ROUNDUP
NATIONAL WEATHER SERVICE BALTIMORE MD/WASHINGTON DC
300 PM EDT WED AUG 27 2014

Note: "FAIR" indicates few or no clouds below 12,000 feet
with no significant weather and/or obstructions to visibility.
 TC=TEMPERATURE CELSIUS

 * =Non NWS site. Station does not report precipitation (e.g. rain,
    snow, etc.), thunder, or fog.

DCZ001-MDZ009-015-VAZ040>042-051-053>054-272000-
WASHINGTON METRO
  /KDAA//-FT BELVOIR

CITY           SKY/WX    TMP DP  RH WIND       PRES   REMARKS
WASHINGTON NAT MOSUNNY   89  65  44 S10       29.98F HX  91
DULLES         MOSUNNY   85  64  49 VRB3      30.00F
ANDREWS AFB    SUNNY     86  64  46 VRB3      29.98F
QUANTICO       MOSUNNY   83  66  56 S6        30.00F
COLLEGE PARK*  SUNNY     88  61  40 SW6       29.97F
LEESBURG*      SUNNY     88  70  55 W3        30.01F HX  92
MANASSAS*      SUNNY     86  64  48 CALM      30.00F
GAITHERSBURG*  SUNNY     84  64  51 NW6       30.02F

$$

MDZ006>007-011-014-272000-
BALTIMORE METRO

CITY           SKY/WX    TMP DP  RH WIND       PRES   REMARKS
BWI AIRPORT    MOSUNNY   88  62  41 VRB6      29.97F
MD SCIENCE CTR   N/A     89  62  40 MISG      29.96F
MARTIN STATE   SUNNY     84  72  65 SE8       29.98F
ANNAPOLIS      SUNNY     81  67  62 E8        29.97F
FORT MEADE*    SUNNY     86  61  42 NW3       30.00F

$$

MDZ012-015-019>023-272000-
MARYLAND EASTERN SHORE

CITY           SKY/WX    TMP DP  RH WIND       PRES   REMARKS
OCEAN CITY     SUNNY     78  67  68 SE6       29.98F
SALISBURY      SUNNY     88  59  37 CALM      29.96F
BAY BRIDGE AP*   N/A     86  59  39 W5        29.98F
CAMBRIDGE*     SUNNY     86  61  42 NW6       29.97F
EASTON*        SUNNY     90  63  40 NW6       30.01F HX  90

$$

MDZ017>025-272000-
SOUTHERN MARYLAND

CITY           SKY/WX    TMP DP  RH WIND       PRES   REMARKS
PATUXENT RIVER MOSUNNY   84  61  45 VRB5      29.98F
ST INIGOES     SUNNY     83  66  56 SW8       29.98F
LEONARDTOWN*   SUNNY     86  55  35 NW3       30.00F

$$

MDZ003>005-272000-
NORTH CENTRAL MARYLAND

CITY           SKY/WX    TMP DP  RH WIND       PRES   REMARKS
FREDERICK*     SUNNY     90  73  58 CALM      30.02F HX  98
HAGERSTOWN APT SUNNY     83  65  54 SW5       30.00F
WESTMINSTER*   SUNNY     84  68  58 W6        30.00F

$$

MDZ501>502-272000-
WESTERN MARYLAND

CITY           SKY/WX    TMP DP  RH WIND       PRES   REMARKS
OAKLAND*       MOSUNNY   77  64  65 NW7       30.15F
CUMBERLAND*    SUNNY     95  64  36 W6        30.03F HX  97

$$

VAZ025>031-272000-
SHENANDOAH VALLEY

CITY           SKY/WX    TMP DP  RH WIND       PRES   REMARKS
WINCHESTER*    SUNNY     86  64  48 CALM      30.01F
STAUNTON*      SUNNY     84  62  47 CALM      30.07F

$$

WVZ021-048>050-054>055-272000-
EASTERN WEST VIRGINIA PANHANDLE

CITY           SKY/WX    TMP DP  RH WIND       PRES   REMARKS
MARTINSBURG    SUNNY     88  64  44 CALM      30.00F
PETERSBURG*    NOT AVBL

$$

VAZ036>039-050-272000-
CENTRAL FOOTHILLS

CITY           SKY/WX    TMP DP  RH WIND       PRES   REMARKS
CHARLOTTESVILL SUNNY     84  63  49 CALM      30.03F
ORANGE*        SUNNY     86  59  39 W7        30.03F

$$

VAZ055>057-272000-
NORTH AND CENTRAL PIEDMONT

CITY           SKY/WX    TMP DP  RH WIND       PRES   REMARKS
FREDERICKSBRG* SUNNY     88  61  40 SW5       29.98F
STAFFORD*      SUNNY     85  62  46 NW3       30.04F

$$

NCZ024-NYZ072-PAZ021-071-VAZ022-071-272000-
OTHER REGIONAL OBSERVATIONS

CITY           SKY/WX    TMP DP  RH WIND       PRES   REMARKS
NEW YORK CITY  SUNNY     89  62  40 CALM      29.94F
PHILADELPHIA   MOSUNNY   88  64  44 W12       29.95F
PITTSBURGH     PTSUNNY   84  68  58 W7        30.03F
ROANOKE        SUNNY     84  61  45 N8        30.09F
RICHMOND       MOSUNNY   88  61  40 S6        29.99F
RALEIGH        MOSUNNY   85  60  42 N7        30.02F

$$

ANZ530>537-272000-
MARINE OBSERVATIONS

STATION/POSITION TIME  TEMP    WIND        PRES
                       AIR SEA DIR/SP/G
                 (UTC) (F)     (DEG/KT/KT) (MB)
THOMAS PT LIGHT  1900   79 78  170/  7/  8 1015.9F
BALT KEY BRIDGE  1900   85     120/  9/  9 1014.8F
COVE POINT       1900   79      40/  3/  4 1015.3F
LEWISETTA        1900   80 78     CALM     1015.2F
SOLOMONS ISLAND  1900      81                N/A
PINEY POINT      1900          200/  4/  4   N/A

$$



USA.gov is the U.S. government's official web portal to all federal, state and local government web resources and services.